When you browse on this site, cookies collect data to enhance your experience and personalize the content and advertising you see.
Visit our Privacy Policy to learn more. By continuing to use the site, you agree to this use of cookies and data.
  • In Schweiz
  • Länderverzeichnis
  • Für 7 Tage
  • Wassertemperatur
  • Wetterkarte
  • Widgets
  • user-avatar
    Anmelden

    Stündliche Wetter Belfast

    Heute, 31 März, Dienstag

    Zeit Temperatur Niederschläge Wind Luftdruck Luftfeuchtigkeit
    00:00 +2°C° 0 mm 3 m/S 776 mmHg 95%
    01:00 +2°C° 0 mm 3 m/S 776 mmHg 95%
    02:00 +1°C° 0 mm 3 m/S 776 mmHg 95%
    03:00 +1°C° 0 mm 3 m/S 776 mmHg 94%
    04:00 +1°C° 0 mm 3 m/S 776 mmHg 94%
    05:00 +1°C° 0 mm 3 m/S 776 mmHg 94%
    06:00 +2°C° 0 mm 2 m/S 776 mmHg 94%
    07:00 +2°C° 0 mm 3 m/S 776 mmHg 88%
    08:00 +4°C° 0 mm 3 m/S 776 mmHg 83%
    09:00 +7°C° 0 mm 3 m/S 775 mmHg 77%
    10:00 +6°C° 0 mm 4 m/S 775 mmHg 74%
    11:00 +7°C° 0 mm 4 m/S 775 mmHg 72%
    12:00 +7°C° 0 mm 4 m/S 775 mmHg 69%
    13:00 +8°C° 0 mm 4 m/S 774 mmHg 68%
    14:00 +8°C° 0 mm 4 m/S 774 mmHg 68%
    15:00 +8°C° 0 mm 4 m/S 774 mmHg 68%
    16:00 +7°C° 0 mm 4 m/S 773 mmHg 69%
    17:00 +7°C° 0 mm 4 m/S 773 mmHg 70%
    18:00 +6°C° 0 mm 4 m/S 772 mmHg 72%
    19:00 +6°C° 0 mm 4 m/S 772 mmHg 72%
    20:00 +5°C° 0 mm 4 m/S 772 mmHg 73%
    21:00 +5°C° 0 mm 3 m/S 772 mmHg 74%
    22:00 +4°C° 0 mm 3 m/S 772 mmHg 77%
    23:00 +4°C° 0 mm 3 m/S 772 mmHg 80%

    Morgen, 1 April, Mittwoch

    Zeit Temperatur Niederschläge Wind Luftdruck Luftfeuchtigkeit
    00:00 +4°C° 0 mm 3 m/S 771 mmHg 83%
    01:00 +4°C° 0 mm 3 m/S 771 mmHg 83%
    02:00 +4°C° 0 mm 3 m/S 770 mmHg 83%
    03:00 +3°C° 0 mm 4 m/S 769 mmHg 83%
    04:00 +3°C° 0 mm 4 m/S 769 mmHg 85%
    05:00 +3°C° 0 mm 4 m/S 769 mmHg 87%
    06:00 +1°C° 0 mm 4 m/S 768 mmHg 89%
    07:00 +4°C° 0 mm 4 m/S 768 mmHg 84%
    08:00 +5°C° 0 mm 5 m/S 768 mmHg 79%
    09:00 +6°C° 0 mm 5 m/S 767 mmHg 75%
    10:00 +6°C° 0.1 mm 5 m/S 767 mmHg 73%
    11:00 +7°C° 0.1 mm 5 m/S 767 mmHg 72%
    12:00 +7°C° 0.1 mm 5 m/S 767 mmHg 71%
    13:00 +8°C° 0 mm 5 m/S 766 mmHg 71%
    14:00 +8°C° 0 mm 5 m/S 766 mmHg 70%
    15:00 +8°C° 0 mm 5 m/S 765 mmHg 70%
    16:00 +8°C° 0 mm 5 m/S 765 mmHg 74%
    17:00 +7°C° 0 mm 5 m/S 765 mmHg 77%
    18:00 +7°C° 0 mm 4 m/S 764 mmHg 81%
    19:00 +6°C° 0 mm 5 m/S 764 mmHg 84%
    20:00 +6°C° 0 mm 5 m/S 764 mmHg 87%
    21:00 +5°C° 0 mm 5 m/S 764 mmHg 89%
    22:00 +5°C° 0 mm 5 m/S 763 mmHg 91%
    23:00 +5°C° 0 mm 5 m/S 763 mmHg 92%

    übermorgen, 2 April, Donnerstag

    Zeit Temperatur Niederschläge Wind Luftdruck Luftfeuchtigkeit
    00:00 +5°C° 0 mm 5 m/S 763 mmHg 93%
    01:00 +5°C° 0.1 mm 5 m/S 762 mmHg 93%
    02:00 +6°C° 0.1 mm 5 m/S 761 mmHg 93%
    03:00 +6°C° 0.1 mm 5 m/S 761 mmHg 93%
    04:00 +6°C° 0 mm 5 m/S 760 mmHg 93%
    05:00 +6°C° 0 mm 5 m/S 760 mmHg 93%
    06:00 +5°C° 0 mm 6 m/S 759 mmHg 93%
    07:00 +5°C° 0.1 mm 6 m/S 759 mmHg 92%
    08:00 +6°C° 0.1 mm 7 m/S 758 mmHg 90%
    09:00 +6°C° 0.1 mm 7 m/S 758 mmHg 88%
    10:00 +8°C° 0.2 mm 7 m/S 758 mmHg 86%
    11:00 +8°C° 0.2 mm 7 m/S 758 mmHg 83%
    12:00 +8°C° 0.2 mm 7 m/S 758 mmHg 81%
    13:00 +8°C° 0.1 mm 7 m/S 758 mmHg 77%
    14:00 +8°C° 0.1 mm 7 m/S 758 mmHg 74%
    15:00 +8°C° 0.1 mm 7 m/S 758 mmHg 71%
    16:00 +7°C° 0 mm 6 m/S 758 mmHg 72%
    17:00 +5°C° 0 mm 6 m/S 758 mmHg 72%
    18:00 +6°C° 0 mm 5 m/S 759 mmHg 72%
    19:00 +5°C° 0 mm 5 m/S 759 mmHg 73%
    20:00 +3°C° 0 mm 5 m/S 759 mmHg 73%
    21:00 +4°C° 0 mm 4 m/S 759 mmHg 74%
    22:00 +4°C° 0 mm 4 m/S 759 mmHg 73%
    23:00 +4°C° 0 mm 4 m/S 759 mmHg 72%

    3 April, Freitag

    Zeit Temperatur Niederschläge Wind Luftdruck Luftfeuchtigkeit
    00:00 +4°C° 0 mm 4 m/S 760 mmHg 71%
    01:00 +3°C° 0 mm 4 m/S 759 mmHg 74%
    02:00 +3°C° 0 mm 4 m/S 759 mmHg 77%
    03:00 +3°C° 0 mm 3 m/S 759 mmHg 79%
    04:00 +3°C° 0 mm 3 m/S 759 mmHg 83%
    05:00 +2°C° 0 mm 3 m/S 759 mmHg 86%
    06:00 +2°C° 0 mm 3 m/S 759 mmHg 89%
    07:00 +3°C° 0 mm 4 m/S 759 mmHg 86%
    08:00 +4°C° 0 mm 4 m/S 760 mmHg 82%
    09:00 +5°C° 0 mm 4 m/S 760 mmHg 78%
    10:00 +6°C° 0.1 mm 4 m/S 760 mmHg 75%
    11:00 +7°C° 0.1 mm 4 m/S 760 mmHg 71%
    12:00 +8°C° 0.1 mm 3 m/S 760 mmHg 68%
    13:00 +9°C° 0.1 mm 3 m/S 760 mmHg 68%
    14:00 +9°C° 0.1 mm 2 m/S 760 mmHg 68%
    15:00 +9°C° 0.1 mm 2 m/S 760 mmHg 68%
    16:00 +9°C° 0 mm 2 m/S 760 mmHg 72%
    17:00 +8°C° 0 mm 2 m/S 760 mmHg 76%
    18:00 +8°C° 0 mm 2 m/S 760 mmHg 80%
    19:00 +7°C° 0 mm 2 m/S 760 mmHg 83%
    20:00 +5°C° 0 mm 3 m/S 760 mmHg 86%
    21:00 +5°C° 0 mm 3 m/S 760 mmHg 89%
    22:00 +4°C° 0 mm 3 m/S 760 mmHg 90%
    23:00 +4°C° 0 mm 3 m/S 760 mmHg 91%

    4 April, Samstag

    Zeit Temperatur Niederschläge Wind Luftdruck Luftfeuchtigkeit
    00:00 +4°C° 0 mm 3 m/S 760 mmHg 92%
    01:00 +4°C° 0.1 mm 3 m/S 759 mmHg 93%
    02:00 +5°C° 0.1 mm 3 m/S 759 mmHg 94%
    03:00 +5°C° 0.1 mm 3 m/S 759 mmHg 94%
    04:00 +5°C° 0 mm 3 m/S 758 mmHg 94%
    05:00 +5°C° 0 mm 4 m/S 758 mmHg 93%
    06:00 +4°C° 0 mm 4 m/S 758 mmHg 92%
    07:00 +5°C° 0 mm 5 m/S 757 mmHg 88%
    08:00 +5°C° 0 mm 6 m/S 757 mmHg 84%
    09:00 +6°C° 0 mm 7 m/S 756 mmHg 80%
    10:00 +6°C° 0 mm 7 m/S 756 mmHg 79%
    11:00 +6°C° 0 mm 7 m/S 755 mmHg 77%
    12:00 +8°C° 0 mm 7 m/S 755 mmHg 75%
    13:00 +7°C° 0 mm 8 m/S 754 mmHg 76%
    14:00 +7°C° 0 mm 8 m/S 754 mmHg 77%
    15:00 +7°C° 0 mm 8 m/S 753 mmHg 78%
    16:00 +7°C° 0 mm 8 m/S 753 mmHg 80%
    17:00 +7°C° 0 mm 8 m/S 752 mmHg 82%
    18:00 +7°C° 0 mm 8 m/S 752 mmHg 83%
    19:00 +7°C° 0 mm 8 m/S 751 mmHg 85%
    20:00 +7°C° 0 mm 8 m/S 751 mmHg 87%
    21:00 +6°C° 0 mm 8 m/S 751 mmHg 88%
    22:00 +6°C° 0 mm 9 m/S 751 mmHg 89%
    23:00 +6°C° 0 mm 9 m/S 750 mmHg 89%

    5 April, Sonntag

    Zeit Temperatur Niederschläge Wind Luftdruck Luftfeuchtigkeit
    00:00 +7°C° 0 mm 9 m/S 750 mmHg 90%
    01:00 +7°C° 0 mm 9 m/S 750 mmHg 90%
    02:00 +7°C° 0 mm 8 m/S 749 mmHg 90%
    03:00 +7°C° 0 mm 8 m/S 749 mmHg 90%
    04:00 +7°C° 0 mm 8 m/S 749 mmHg 89%
    05:00 +7°C° 0 mm 8 m/S 748 mmHg 88%
    06:00 +7°C° 0 mm 8 m/S 748 mmHg 87%
    07:00 +9°C° 0 mm 8 m/S 748 mmHg 84%
    08:00 +10°C° 0 mm 8 m/S 748 mmHg 81%
    09:00 +11°C° 0 mm 8 m/S 748 mmHg 77%
    10:00 +11°C° 0 mm 9 m/S 748 mmHg 75%
    11:00 +12°C° 0 mm 9 m/S 747 mmHg 72%
    12:00 +12°C° 0 mm 9 m/S 747 mmHg 69%
    13:00 +12°C° 0 mm 9 m/S 746 mmHg 72%
    14:00 +12°C° 0 mm 8 m/S 746 mmHg 75%
    15:00 +12°C° 0 mm 8 m/S 745 mmHg 79%
    16:00 +11°C° 0 mm 9 m/S 744 mmHg 80%
    17:00 +11°C° 0 mm 9 m/S 744 mmHg 81%
    18:00 +11°C° 0 mm 9 m/S 743 mmHg 82%
    19:00 +10°C° 0.1 mm 9 m/S 743 mmHg 85%
    20:00 +10°C° 0.1 mm 9 m/S 742 mmHg 88%
    21:00 +10°C° 0.1 mm 9 m/S 742 mmHg 92%
    22:00 +10°C° 0.1 mm 9 m/S 741 mmHg 92%
    23:00 +10°C° 0.1 mm 9 m/S 741 mmHg 92%
    Mehr zeigen